Wetbulb
36.66 39.43 39.76 40.21 40.05 39.69 39.51 39.20 38.60 37.88 36.92 36.26 35.92 35.02 34.54 34.48 34.79 34.01 33.86 34.16 33.55 34.03 35.62 35.41 35.27 36.11 35.40 35.70 36.50 36.48 35.70 34.88 31.32 32.70 34.09 34.68 33.05 33.27 27.87 28.94 31.69 34.01 32.07
35.26 36.57 38.52 39.78 38.79 38.15 37.86 37.98 38.03 37.18 36.67 36.21 35.59 34.77 34.41 34.61 34.57 34.17 33.75 33.78 33.20 34.08 34.70 34.67 34.51 35.36 34.88 35.53 35.55 34.80 34.74 34.95 32.41 29.84 31.18 32.49 32.27 26.79 23.68 24.31 30.44 32.61 29.00
34.12 34.23 35.34 36.09 36.77 36.40 35.04 35.00 36.24 35.24 34.67 34.89 35.13 34.23 33.78 33.61 33.90 34.23 33.76 33.25 33.02 33.32 34.53 34.30 34.18 34.68 34.13 34.35 34.34 33.53 33.72 33.76 33.13 31.14 30.71 32.00 31.98 24.24 23.12 22.45 29.04 30.89 31.70
33.02 32.70 32.21 33.36 35.09 34.66 33.85 33.58 33.80 34.02 33.74 33.79 34.16 33.53 33.18 32.90 33.04 32.49 32.72 32.43 31.63 32.29 34.00 33.63 34.63 34.41 33.93 33.68 32.94 32.47 32.46 31.52 31.53 31.02 30.90 30.90 29.79 30.62 27.67 26.42 28.42 29.72 28.67
32.75 31.32 31.07 32.40 32.93 32.90 30.10 32.26 32.56 32.67 33.35 33.50 32.22 31.20 31.18 32.74 33.22 32.25 32.28 32.37 30.88 29.65 30.42 32.66 34.42 33.80 34.68 34.37 32.57 31.43 31.37 30.60 30.63 30.23 29.44 29.16 28.74 27.94 26.40 27.82 27.38 28.15 29.87
32.65 32.38 30.94 31.01 31.84 32.26 30.83 30.80 32.16 31.10 30.20 31.20 31.77 31.40 31.00 32.84 35.94 35.99 34.08 31.97 30.71 30.36 29.31 29.45 33.12 32.45 33.70 34.34 33.61 33.93 32.70 30.36 30.08 29.52 28.81 27.78 28.21 27.23 27.22 26.77 26.73 26.20 26.85
30.27 31.15 31.75 29.83 31.55 31.59 32.33 30.60 30.89 30.96 30.31 31.61 30.96 30.78 32.45 33.19 36.28 36.63 35.56 32.96 32.71 29.81 29.93 30.17 29.89 30.46 29.17 30.40 32.64 33.21 32.55 33.30 33.28 30.25 28.21 27.49 26.41 23.93 27.09 26.16 26.13 25.92 26.68
27.18 28.17 29.46 30.75 32.26 32.83 31.90 32.27 31.52 31.32 31.23 31.48 32.19 31.77 30.20 30.63 35.92 36.69 35.10 32.48 31.23 28.41 29.12 29.58 29.90 29.33 29.40 29.09 28.70 28.75 30.02 30.46 30.19 29.47 27.56 26.80 25.82 27.97 27.60 27.14 26.11 23.40 26.87
24.34 26.11 27.74 29.69 32.05 32.96 32.37 32.85 32.93 32.23 31.51 31.75 32.46 30.47 29.67 29.78 35.97 35.66 34.25 28.90 28.04 26.43 26.66 27.46 28.22 27.82 30.90 32.13 28.49 26.23 26.30 29.46 31.88 31.45 30.82 30.43 30.24 29.34 28.23 20.53 23.66 18.08 27.82
27.11 27.23 28.23 28.37 31.11 32.65 33.02 32.52 32.11 31.33 31.22 30.94 29.87 29.88 29.80 29.46 36.20 35.56 33.93 30.41 27.27 26.24 22.33 24.13 28.53 28.51 32.05 32.83 24.44 23.81 20.82 22.60 27.66 19.99 21.35 25.61 24.29 23.49 26.66 24.52 23.88 16.08 25.18
27.57 26.92 25.32 25.39 27.94 32.94 33.40 32.95 31.63 30.19 30.69 29.66 29.28 29.11 28.64 29.20 33.61 36.47 35.19 30.04 28.68 26.45 26.30 24.74 26.53 32.04 32.79 33.13 29.71 21.59 21.76 20.32 23.65 16.49 14.92 14.34 14.93 15.49 24.27 23.81 17.25 17.58 20.65
25.04 25.09 24.07 24.66 26.89 32.29 32.93 32.48 31.45 30.21 29.27 28.34 28.06 26.71 27.91 28.09 32.10 36.35 35.93 32.77 31.44 27.49 26.55 26.27 26.09 31.89 32.56 33.19 30.26 29.10 30.21 22.90 15.88 15.97 16.56 14.23 11.88 11.56 14.99 20.36 21.87 16.92 12.87
21.68 20.45 20.80 22.85 26.03 31.57 32.39 31.66 30.24 30.26 29.42 28.09 27.64 27.14 26.82 26.74 29.56 35.53 36.42 34.39 32.59 27.94 27.29 27.65 28.75 31.86 32.61 32.60 32.39 31.23 23.94 17.22 16.40 14.95 17.56 14.05 12.97 12.65 10.09 19.77 22.37 22.60 17.01
17.92 17.81 19.95 22.12 25.71 31.51 32.33 32.29 30.97 29.94 29.58 28.77 28.16 28.07 27.61 26.85 27.58 31.07 32.52 33.56 31.22 29.50 29.69 28.58 29.25 30.56 30.90 26.34 24.94 27.48 19.47 18.79 19.24 20.06 14.84 12.59 12.90 10.66 10.34 11.49 22.35 21.92 20.63
16.65 17.51 19.47 22.25 26.39 30.83 31.64 31.87 30.88 31.61 31.60 30.27 30.05 30.57 28.82 26.92 28.24 31.09 31.65 31.19 30.73 30.30 25.91 26.67 25.88 24.49 20.58 16.01 14.45 14.10 12.53 14.03 17.08 15.62 15.44 14.91 13.55 12.32 11.83 9.70 16.72 21.72 21.37
15.42 16.24 18.81 22.20 25.24 30.62 30.65 30.76 33.91 33.78 33.73 34.50 34.55 33.28 31.77 33.43 33.08 32.94 33.46 33.50 33.60 31.83 25.94 25.93 25.41 24.51 22.37 20.37 20.36 17.69 10.75 13.43 16.00 15.01 14.88 15.88 16.37 14.95 11.86 15.57 19.55 12.08 15.55
13.28 14.91 17.05 20.24 24.22 29.13 29.84 29.87 28.79 32.05 34.15 34.42 34.92 34.73 33.94 33.57 33.44 33.27 33.71 33.68 33.84 31.42 26.44 25.78 25.03 23.03 21.08 19.52 18.84 17.98 17.50 17.17 13.65 15.91 16.62 15.78 14.93 14.20 11.86 8.34 8.11 7.83 5.81
11.87 14.71 16.10 18.74 23.57 28.76 30.12 30.17 30.21 29.56 28.87 30.16 34.19 33.88 34.31 34.57 34.20 33.86 33.80 33.24 30.41 30.13 27.58 25.92 25.28 23.33 20.67 19.56 18.63 18.46 17.13 15.69 15.79 16.99 16.48 16.01 16.74 15.91 9.95 11.14 9.01 5.53 2.94
12.15 14.60 17.28 20.83 25.44 28.43 30.04 30.09 30.24 29.75 29.60 29.74 29.02 32.44 32.42 34.51 34.52 34.36 34.06 29.81 29.01 28.74 26.71 26.80 27.19 25.67 22.62 20.57 19.31 19.39 19.18 18.85 19.16 17.78 17.34 15.88 15.54 14.46 9.32 11.82 9.64 5.24 3.99
12.83 14.94 17.12 19.51 25.42 27.36 28.57 29.05 28.70 29.20 29.02 29.20 30.42 30.14 30.51 32.03 31.45 31.35 31.39 29.87 29.28 29.49 28.79 27.78 27.43 26.09 23.65 21.59 20.97 20.90 20.55 19.67 18.66 18.27 17.17 16.28 14.65 14.85 14.27 11.82 10.50 6.85 0.88
14.02 16.46 20.47 24.30 25.71 26.74 27.56 28.56 28.48 28.59 28.18 28.91 28.77 30.42 32.16 31.30 30.85 30.91 30.05 28.59 29.02 29.35 29.51 28.48 27.16 27.02 25.32 22.81 22.17 21.89 21.91 21.46 20.50 19.41 17.31 16.53 13.76 12.99 10.98 12.03 9.44 4.95 1.95
17.70 17.88 18.24 18.56 19.91 19.95 20.07 20.99 21.08 20.44 20.02 18.67 19.00 25.91 26.42 20.96 20.56 20.05 19.88 20.23 22.38 27.58 29.54 29.28 28.26 27.96 26.64 24.07 23.07 22.31 21.14 20.84 19.87 18.75 17.02 14.05 12.21 10.31 9.57 8.99 8.01 3.22 1.56
15.81 15.34 15.09 15.18 15.61 16.01 15.44 15.13 15.15 14.70 13.90 13.78 13.96 13.71 14.15 13.69 13.81 13.86 13.97 14.86 16.04 17.48 20.34 29.81 28.24 25.48 25.56 25.05 24.87 23.57 21.86 20.67 20.15 18.78 15.87 14.08 12.87 11.90 11.10 8.80 8.26 5.85 4.50
12.94 12.56 12.02 11.91 12.09 11.66 11.21 10.68 10.73 10.86 10.52 10.11 10.01 9.93 9.91 10.23 10.23 10.30 11.18 12.41 13.44 14.42 16.65 18.95 20.87 20.85 20.18 19.59 19.69 20.22 20.71 19.95 19.43 19.16 17.92 15.46 14.06 12.64 11.36 9.13 9.45 7.86 6.26
10.11 9.60 9.24 9.19 9.05 8.80 8.36 7.89 7.68 7.68 7.59 7.64 7.20 7.13 7.42 7.80 7.76 8.07 8.89 9.76 10.38 11.13 11.69 13.66 15.96 17.12 18.24 18.90 19.20 19.09 19.69 18.94 18.01 17.81 16.89 15.84 14.00 13.09 12.63 11.94 9.69 7.23 4.67
7.07 7.34 7.44 7.53 7.06 6.99 6.32 5.45 5.01 5.09 4.42 4.34 4.29 4.30 4.64 4.44 4.63 5.29 6.32 7.01 7.49 7.26 7.95 8.97 10.59 12.72 14.88 17.05 17.96 18.96 19.43 19.86 18.24 17.96 17.80 16.68 14.97 14.04 13.74 12.07 11.01 10.47 8.86
MSLP
1016.59 1015.81 1015.14 1015.09 1014.95 1015.04 1015.40 1015.72 1016.19 1016.83 1017.44 1018.17 1018.95 1019.58 1020.14 1020.47 1020.77 1021.12 1021.28 1021.64 1021.88 1022.34 1022.62 1022.96 1023.27 1023.51 1023.62 1023.82 1023.94 1024.20 1024.49 1024.68 1025.13 1025.32 1025.47 1025.08 1025.09 1024.96 1024.75 1024.34 1024.14 1024.03 1023.64
1017.16 1016.39 1015.55 1015.01 1015.23 1015.19 1015.30 1015.44 1015.80 1016.34 1017.01 1017.65 1018.49 1019.29 1019.83 1020.21 1020.55 1020.89 1021.12 1021.43 1021.73 1022.26 1022.62 1023.01 1023.25 1023.60 1023.70 1023.86 1023.99 1024.29 1024.59 1024.74 1025.12 1025.34 1025.32 1025.14 1025.15 1025.38 1025.19 1024.92 1024.54 1024.28 1023.97
1017.47 1016.84 1016.05 1015.45 1015.28 1015.24 1015.22 1015.34 1015.65 1016.12 1016.75 1017.43 1018.14 1018.82 1019.39 1019.83 1020.22 1020.57 1020.83 1021.24 1021.63 1022.07 1022.48 1022.82 1023.19 1023.38 1023.66 1023.76 1023.92 1024.14 1024.47 1024.77 1025.02 1025.22 1025.24 1025.14 1025.29 1025.74 1025.46 1025.39 1024.97 1024.65 1024.18
1017.70 1017.13 1016.45 1015.83 1015.41 1015.07 1015.05 1015.28 1015.59 1015.91 1016.53 1017.15 1017.72 1018.37 1019.01 1019.55 1020.00 1020.33 1020.73 1021.19 1021.52 1021.92 1022.36 1022.68 1022.99 1023.14 1023.44 1023.66 1023.79 1024.08 1024.43 1024.71 1024.93 1025.09 1025.14 1025.39 1025.45 1025.64 1025.80 1025.83 1025.48 1025.19 1024.91
1017.80 1017.25 1016.58 1015.92 1015.29 1015.08 1014.98 1015.14 1015.41 1015.91 1016.29 1016.77 1017.48 1018.18 1018.78 1019.27 1019.68 1020.11 1020.55 1021.03 1021.49 1021.97 1022.29 1022.60 1022.77 1023.06 1023.12 1023.50 1023.79 1024.06 1024.34 1024.68 1024.84 1025.04 1025.20 1025.60 1025.65 1025.77 1025.97 1025.99 1025.78 1025.54 1025.22
1017.57 1017.01 1016.52 1016.02 1015.39 1014.98 1014.86 1014.98 1015.24 1015.70 1016.12 1016.61 1017.22 1017.87 1018.53 1018.94 1019.28 1019.74 1020.19 1020.70 1021.24 1021.71 1022.21 1022.55 1022.79 1023.12 1023.39 1023.55 1023.85 1023.97 1024.18 1024.36 1024.61 1025.05 1025.32 1025.77 1025.82 1026.12 1026.12 1026.05 1025.88 1025.79 1025.45
1017.43 1016.85 1016.37 1015.88 1015.36 1014.85 1014.68 1014.87 1015.11 1015.48 1016.01 1016.38 1016.87 1017.50 1018.12 1018.62 1019.05 1019.50 1019.99 1020.43 1021.00 1021.55 1022.00 1022.48 1022.92 1023.31 1023.67 1023.65 1023.76 1024.08 1024.27 1024.32 1024.38 1024.97 1025.40 1025.83 1025.98 1026.31 1026.21 1026.11 1026.11 1026.15 1025.87
1017.29 1016.72 1016.20 1015.76 1015.18 1014.70 1014.55 1014.51 1014.66 1015.09 1015.47 1015.99 1016.43 1017.02 1017.75 1018.31 1018.77 1019.34 1019.93 1020.50 1020.93 1021.29 1021.71 1022.19 1022.59 1022.99 1023.33 1023.49 1023.77 1024.17 1024.51 1024.56 1024.67 1024.96 1025.50 1025.94 1026.08 1026.12 1026.14 1026.20 1026.30 1026.37 1025.94
1017.04 1016.51 1015.99 1015.73 1014.90 1014.34 1014.11 1014.01 1014.16 1014.60 1015.09 1015.44 1015.98 1016.57 1017.14 1017.83 1018.28 1018.93 1019.66 1020.28 1020.77 1021.15 1021.52 1021.91 1022.24 1022.61 1022.97 1023.22 1023.75 1024.24 1024.60 1024.61 1024.63 1024.93 1025.33 1025.66 1025.76 1025.93 1026.10 1026.56 1026.53 1026.62 1026.12
1016.56 1016.18 1015.68 1015.29 1014.51 1013.78 1013.48 1013.47 1013.55 1013.90 1014.36 1014.93 1015.53 1016.03 1016.53 1017.18 1017.79 1018.48 1019.15 1019.79 1020.49 1020.98 1021.46 1021.71 1021.92 1022.21 1022.55 1022.82 1023.41 1024.10 1024.58 1024.64 1024.97 1025.46 1025.93 1025.92 1026.24 1026.36 1026.45 1026.50 1026.60 1026.75 1026.45
1016.02 1015.84 1015.53 1014.83 1014.16 1013.00 1012.49 1012.54 1012.85 1013.28 1013.70 1014.35 1014.94 1015.53 1016.11 1016.57 1017.11 1017.72 1018.41 1018.97 1019.52 1020.38 1020.95 1021.37 1021.47 1021.73 1022.06 1022.48 1023.16 1023.72 1024.08 1024.43 1025.09 1025.58 1026.07 1026.69 1027.00 1027.11 1026.77 1026.76 1027.00 1026.92 1026.83
1015.75 1015.45 1014.99 1014.38 1013.51 1012.19 1011.67 1011.74 1012.03 1012.49 1013.02 1013.65 1014.30 1015.05 1015.60 1016.10 1016.48 1017.09 1017.68 1018.31 1018.88 1019.49 1020.07 1020.48 1020.86 1021.28 1021.67 1022.07 1022.77 1023.39 1023.62 1024.52 1025.28 1025.86 1026.39 1027.04 1027.19 1027.23 1027.47 1027.12 1027.07 1027.09 1027.21
1015.33 1014.84 1014.27 1013.48 1012.60 1011.44 1010.90 1010.92 1011.26 1011.58 1012.06 1012.70 1013.34 1014.14 1014.90 1015.65 1016.17 1016.52 1017.16 1017.94 1018.53 1019.16 1019.45 1019.86 1020.49 1021.09 1021.51 1022.00 1022.49 1022.92 1023.69 1024.61 1025.36 1026.03 1026.39 1026.84 1026.85 1026.93 1027.45 1027.24 1027.17 1027.15 1027.28
1014.82 1014.25 1013.58 1012.74 1011.68 1010.61 1010.07 1010.03 1010.22 1010.47 1010.95 1011.50 1012.16 1012.88 1013.75 1014.67 1015.40 1015.94 1016.63 1017.41 1018.07 1018.69 1019.23 1019.73 1020.33 1020.92 1021.45 1022.02 1022.60 1022.96 1023.62 1024.43 1024.98 1025.33 1025.97 1026.16 1026.71 1027.12 1027.47 1027.60 1027.36 1027.28 1027.53
1014.34 1013.67 1012.95 1012.00 1010.91 1009.81 1009.21 1009.01 1009.15 1009.27 1009.59 1010.15 1010.71 1011.26 1012.00 1013.05 1013.51 1014.16 1015.09 1016.07 1016.93 1017.79 1018.99 1019.75 1020.47 1021.08 1021.79 1022.35 1022.81 1023.29 1023.87 1024.44 1024.88 1025.05 1025.45 1026.05 1026.44 1026.82 1027.26 1027.58 1027.43 1027.54 1027.93
1013.81 1013.11 1012.37 1011.40 1010.32 1009.10 1008.52 1008.36 1008.31 1008.45 1008.84 1009.30 1009.82 1010.18 1010.93 1011.51 1012.51 1013.52 1014.24 1015.20 1016.14 1017.21 1018.37 1019.17 1019.90 1020.65 1021.28 1021.98 1022.74 1023.41 1023.94 1024.29 1024.49 1024.77 1025.15 1025.65 1026.16 1026.67 1027.21 1027.42 1027.52 1027.99 1028.53
1013.28 1012.54 1011.82 1010.87 1009.78 1008.59 1007.90 1007.70 1007.73 1008.07 1008.24 1008.55 1009.11 1009.72 1010.29 1010.84 1011.68 1012.67 1013.62 1014.58 1015.50 1016.63 1017.39 1018.30 1018.95 1019.64 1020.55 1021.32 1021.93 1022.49 1023.10 1023.45 1023.81 1024.38 1024.80 1025.29 1025.83 1026.48 1027.05 1027.73 1027.96 1028.53 1029.12
1012.42 1011.73 1011.04 1010.02 1009.01 1007.93 1007.23 1007.02 1007.09 1007.27 1007.53 1007.95 1008.55 1009.17 1009.85 1010.45 1011.09 1011.98 1013.03 1014.34 1015.65 1016.42 1016.72 1017.32 1017.94 1018.66 1019.53 1020.53 1021.20 1021.72 1022.27 1023.03 1023.57 1024.03 1024.51 1024.96 1025.46 1025.95 1026.95 1027.46 1027.95 1028.40 1029.14
1011.50 1010.67 1009.84 1008.94 1008.06 1007.19 1006.65 1006.45 1006.50 1006.73 1007.03 1007.46 1008.33 1008.97 1009.58 1010.26 1010.85 1011.55 1012.44 1013.16 1014.22 1015.15 1016.06 1016.67 1017.14 1017.71 1018.55 1019.54 1020.32 1020.97 1021.27 1022.10 1022.61 1023.24 1023.86 1024.45 1025.04 1025.70 1026.47 1027.06 1027.74 1028.43 1029.07
1010.42 1009.53 1008.76 1008.08 1007.16 1006.42 1006.07 1005.98 1006.12 1006.41 1006.76 1007.15 1007.69 1008.48 1009.43 1010.23 1010.90 1011.48 1012.22 1012.94 1013.51 1014.14 1015.17 1015.99 1016.49 1017.01 1017.83 1018.70 1019.59 1020.18 1020.64 1021.34 1022.09 1022.60 1023.20 1023.82 1024.52 1025.12 1025.84 1026.58 1027.35 1028.16 1028.93
1009.37 1008.32 1007.53 1007.01 1006.31 1005.89 1005.73 1005.72 1005.96 1006.33 1006.80 1007.18 1007.74 1008.20 1008.92 1009.80 1010.65 1011.38 1012.05 1012.69 1013.10 1013.69 1014.43 1015.22 1016.06 1016.47 1017.00 1017.89 1018.76 1019.28 1019.72 1020.30 1021.01 1021.74 1022.46 1023.17 1024.00 1024.87 1025.40 1026.01 1026.84 1027.58 1028.46
1008.18 1007.59 1007.26 1006.95 1006.51 1006.37 1006.36 1006.41 1006.72 1007.18 1007.65 1008.17 1008.82 1008.95 1009.64 1010.55 1011.31 1011.93 1012.49 1013.07 1013.50 1013.82 1014.24 1014.89 1015.58 1015.91 1016.42 1017.23 1017.99 1018.48 1019.00 1019.64 1020.45 1021.13 1021.84 1022.56 1023.46 1024.30 1025.11 1025.95 1026.78 1027.55 1028.26
1007.88 1007.85 1007.74 1007.53 1007.42 1007.35 1007.38 1007.79 1008.19 1008.60 1009.11 1009.56 1010.16 1010.72 1011.27 1012.01 1012.61 1013.20 1013.79 1014.22 1014.46 1014.62 1014.66 1014.63 1015.25 1015.93 1016.42 1016.93 1017.40 1017.86 1018.42 1019.11 1019.80 1020.47 1021.28 1022.22 1023.11 1023.95 1024.67 1025.53 1026.39 1027.37 1028.07
1008.35 1008.53 1008.53 1008.55 1008.58 1008.70 1008.93 1009.39 1009.82 1010.17 1010.65 1011.22 1011.86 1012.45 1012.98 1013.53 1014.03 1014.52 1014.85 1015.07 1015.24 1015.45 1015.45 1015.41 1015.77 1016.33 1016.86 1017.27 1017.69 1018.08 1018.43 1018.97 1019.60 1020.15 1020.72 1021.67 1022.65 1023.57 1024.47 1025.24 1026.00 1026.81 1027.62
1009.47 1009.54 1009.62 1009.91 1010.00 1010.28 1010.59 1011.00 1011.50 1011.93 1012.51 1013.01 1013.58 1014.01 1014.56 1015.04 1015.50 1015.84 1016.07 1016.24 1016.37 1016.45 1016.67 1016.82 1017.01 1017.24 1017.42 1017.71 1018.06 1018.32 1018.60 1019.03 1019.52 1020.08 1020.72 1021.46 1022.27 1023.26 1024.16 1024.99 1025.90 1026.82 1027.56
1010.47 1010.79 1011.05 1011.26 1011.54 1011.84 1012.14 1012.54 1013.07 1013.56 1014.06 1014.69 1015.14 1015.57 1015.90 1016.43 1016.83 1017.04 1017.19 1017.34 1017.63 1017.95 1018.13 1018.25 1018.31 1018.27 1018.33 1018.49 1018.68 1018.84 1019.06 1019.33 1019.82 1020.26 1020.78 1021.44 1022.31 1023.33 1024.14 1025.01 1025.88 1026.59 1027.24
Wind_Speed
12 10 5 6 6 6 8 9 10 9 10 11 10 9 8 8 7 6 6 6 7 5 5 5 5 4 3 3 2 2 2 2 2 0 2 2 2 4 5 5 5 5 5
11 11 8 5 4 5 7 8 9 11 10 11 10 10 9 8 8 8 8 7 7 7 6 6 5 5 4 4 3 4 2 2 2 0 1 2 1 3 2 3 4 4 4
11 11 10 7 5 6 6 6 7 9 9 10 11 11 10 9 9 8 8 8 8 7 6 8 6 6 5 3 4 3 3 2 1 1 2 1 2 3 3 3 3 4 4
11 11 10 8 6 6 6 6 7 8 10 10 10 9 9 9 8 7 8 8 6 6 6 6 6 6 6 5 5 4 3 3 2 0 0 2 2 3 2 2 3 2 3
11 11 11 10 7 5 4 6 6 8 9 9 9 7 7 9 7 9 8 9 8 6 5 5 5 5 9 8 4 4 4 3 1 1 1 2 2 3 4 2 2 2 2
11 12 10 10 8 6 5 6 8 7 7 9 10 10 10 7 15 17 12 9 8 9 8 5 6 8 9 10 9 8 6 4 4 2 2 1 1 2 2 2 1 2 2
10 11 11 9 10 7 6 7 8 9 8 10 10 10 11 9 19 18 16 8 9 7 8 8 5 4 5 5 9 9 8 8 6 4 3 2 1 1 1 2 1 1 1
10 10 10 10 10 8 7 9 8 8 11 11 11 10 10 9 21 21 17 9 9 7 8 9 8 8 7 6 5 5 7 4 3 3 2 2 2 1 0 1 1 3 2
9 10 9 11 12 8 10 11 9 9 9 9 10 11 11 9 23 23 19 8 7 7 6 7 7 7 11 13 6 6 5 5 6 4 5 5 5 2 3 2 1 0 1
10 13 12 12 13 12 11 11 10 9 10 9 9 11 11 10 20 23 18 7 8 6 3 5 11 9 15 16 7 7 6 5 7 2 3 4 5 4 5 3 1 1 0
8 13 13 12 14 13 11 10 10 10 9 10 11 9 10 12 15 24 24 9 8 8 7 6 6 17 17 17 13 6 6 5 6 4 3 2 2 3 3 2 3 2 1
8 12 14 13 12 10 11 10 10 11 11 11 11 8 8 9 14 23 26 17 15 9 9 7 7 18 18 17 12 13 11 8 4 3 3 2 2 2 1 1 2 3 2
8 11 12 13 12 12 10 10 9 11 10 10 10 9 8 7 8 21 23 21 18 8 6 10 15 18 17 14 15 15 8 4 4 3 3 3 3 2 3 1 1 1 3
9 11 12 11 12 11 8 9 10 10 10 10 10 10 9 9 9 9 10 11 13 8 10 8 11 12 10 6 5 7 4 4 4 3 3 2 2 2 2 2 2 1 1
8 10 12 10 12 10 9 9 10 11 12 11 11 11 12 12 13 19 17 12 11 10 8 5 4 4 5 3 2 3 2 3 4 3 3 3 2 3 2 2 2 2 1
9 8 9 9 9 9 7 7 17 16 20 19 17 12 8 10 19 25 26 23 21 23 6 7 7 7 8 7 7 5 3 4 4 3 3 3 3 3 3 1 2 2 4
9 10 9 10 9 9 7 8 8 11 17 19 17 18 17 15 24 27 26 23 24 24 7 9 9 9 8 7 7 6 6 6 4 4 3 4 4 3 4 2 2 3 2
9 14 10 9 10 9 7 8 8 9 9 8 14 15 16 18 23 25 25 22 13 12 7 9 9 8 7 7 7 7 5 5 4 5 4 5 5 4 3 3 3 4 3
9 9 9 8 10 9 7 7 7 8 8 8 5 9 11 17 20 24 27 12 13 11 8 8 7 7 7 7 6 6 6 7 7 7 6 6 5 4 3 4 4 4 5
10 15 13 9 9 7 6 7 7 7 8 8 9 8 8 10 10 11 12 9 10 9 9 9 7 7 7 7 6 7 7 6 6 6 6 6 6 5 5 5 5 4 3
8 8 11 10 6 4 5 6 6 6 6 6 6 8 15 9 8 9 8 8 8 8 8 7 6 6 6 6 6 7 7 7 7 7 7 7 6 6 4 4 4 4 4
5 2 2 1 2 4 5 5 6 7 7 8 7 8 17 7 6 6 6 5 3 4 5 6 6 5 5 6 6 6 7 7 6 7 7 6 6 5 5 5 5 3 4
2 3 3 5 5 7 8 7 8 8 8 9 8 8 8 8 7 7 6 5 5 4 2 4 5 4 4 4 4 5 6 6 7 7 8 7 7 7 6 5 6 4 4
5 5 6 6 6 8 8 9 9 12 10 9 9 8 8 8 8 8 7 6 6 6 6 6 6 7 6 5 3 3 3 4 5 7 9 8 7 7 6 4 6 4 4
7 7 8 7 8 8 9 10 10 10 10 9 9 9 8 8 8 7 7 6 7 8 9 7 6 8 9 8 6 6 6 8 6 8 6 8 9 9 7 6 6 4 3
9 9 8 8 8 8 9 9 10 9 10 9 9 8 9 8 8 7 7 8 8 8 8 7 8 11 10 7 8 8 8 9 8 9 7 7 8 7 6 7 8 5 6
Wind_Direction
340 331 273 237 205 175 184 183 182 169 170 171 173 170 174 170 165 159 151 151 139 136 131 149 143 144 129 135 103 85 86 88 118 198 340 339 312 359 358 8 4 9 351
335 327 311 259 229 194 193 188 173 175 172 171 167 171 173 172 167 165 159 154 146 151 153 150 154 162 155 154 147 153 138 106 145 336 282 343 352 357 349 13 5 350 352
331 332 324 298 232 219 209 184 173 161 165 163 168 175 175 174 169 168 159 158 153 158 154 163 164 165 166 161 164 147 142 105 159 147 307 298 358 12 360 353 357 338 334
322 323 320 306 263 232 215 182 173 170 166 169 175 171 174 168 169 160 156 159 153 153 153 162 170 163 174 177 168 160 165 165 172 139 334 0 22 12 35 21 5 353 323
319 310 308 306 277 236 182 182 164 169 175 171 158 158 159 170 171 166 164 162 157 152 155 171 163 171 179 183 176 167 163 157 168 168 45 346 10 23 21 337 299 319 273
315 308 297 300 288 233 203 181 174 171 162 158 168 169 171 179 180 176 166 160 160 163 166 168 174 180 187 174 184 182 180 173 179 184 164 272 23 38 349 330 324 349 344
311 309 304 290 295 245 206 184 183 179 171 178 170 167 180 181 187 181 173 166 169 170 164 167 167 170 181 177 191 198 203 210 203 188 185 212 212 167 317 327 0 299 355
308 306 306 297 287 263 213 201 191 180 181 183 182 178 175 185 188 186 177 178 180 170 170 172 175 175 186 172 172 171 194 194 177 157 181 164 149 184 1 305 324 306 266
306 307 310 304 290 261 228 212 200 188 190 188 189 181 181 183 188 186 180 169 172 173 167 169 170 169 186 183 168 165 183 183 174 176 173 165 142 96 46 75 93 60 154
312 310 307 303 289 266 232 217 201 194 195 189 185 187 187 180 188 188 179 168 169 170 168 175 183 177 187 187 166 168 181 187 167 76 47 92 78 82 60 43 341 150 19
303 306 299 296 287 266 232 212 200 192 188 187 186 181 180 179 188 189 183 174 175 170 177 184 191 189 190 193 182 175 185 156 161 133 112 92 70 68 80 31 38 104 30
296 300 295 290 285 270 228 210 197 188 186 186 180 176 183 182 188 193 191 187 177 173 185 184 185 191 191 195 183 191 186 136 125 126 122 145 152 152 183 131 49 73 79
292 294 290 288 282 268 225 206 192 191 191 188 184 184 182 176 188 193 192 191 188 183 170 181 179 188 189 195 188 191 161 134 145 135 167 182 194 166 123 170 158 54 78
286 291 290 285 284 263 220 206 198 194 193 190 188 185 179 175 181 184 187 184 190 178 176 170 175 179 175 153 163 193 138 156 175 162 163 140 115 105 118 175 166 165 76
279 286 287 282 279 263 221 209 204 204 197 192 194 190 178 184 193 184 176 180 179 172 131 129 142 144 146 142 130 137 121 149 174 162 144 151 135 128 141 183 162 135 104
279 283 279 285 287 261 221 218 214 208 201 208 205 195 193 191 176 181 182 182 173 158 138 164 173 179 182 179 182 181 170 185 186 162 147 154 153 152 140 153 103 119 138
263 275 275 273 275 262 220 209 199 212 202 204 201 193 182 179 171 180 181 175 171 162 167 180 185 182 185 184 184 180 193 197 148 168 161 167 146 139 142 148 118 118 101
260 265 263 264 266 255 221 207 198 192 187 191 202 186 184 177 174 178 173 161 168 183 182 187 191 183 175 183 181 190 173 155 170 174 168 169 171 155 144 152 166 140 138
266 263 259 263 265 246 218 199 193 185 183 167 150 173 171 171 171 173 170 171 175 180 184 193 195 180 174 176 180 185 172 181 181 171 175 172 171 155 148 154 149 152 132
262 256 254 257 259 230 204 191 180 175 169 165 169 161 155 148 169 170 176 175 174 174 179 188 192 172 164 168 175 180 171 165 172 173 174 174 172 173 162 159 166 157 174
260 264 257 255 228 207 191 181 165 156 152 147 143 152 159 162 163 166 164 162 162 160 164 172 181 174 166 166 174 177 178 177 176 175 170 172 165 175 159 151 150 145 137
262 289 333 357 71 74 78 81 95 100 98 95 75 83 104 84 88 88 84 83 88 140 160 167 171 170 167 166 172 172 172 171 168 168 167 163 162 149 146 143 148 140 145
57 67 67 63 66 82 78 74 82 86 86 82 82 79 76 80 78 77 76 68 63 61 36 149 140 126 129 139 147 158 162 170 174 164 157 158 159 159 158 149 151 135 155
64 66 72 68 69 74 77 78 76 74 77 74 75 76 77 77 78 72 64 60 59 54 52 64 75 93 99 93 98 112 122 129 145 161 151 151 149 141 142 130 150 141 136
67 70 67 68 73 77 80 76 74 74 75 75 76 74 74 74 71 67 65 63 61 60 54 53 62 71 76 88 97 111 126 131 128 132 127 133 136 139 138 131 138 124 116
65 67 72 71 72 75 79 81 78 75 75 72 71 69 70 70 66 62 59 62 64 59 58 51 51 57 60 66 79 92 101 108 116 119 121 126 130 130 131 131 142 143 139